Location: Barcelona
(41.3830°N, 2.1830°E)
Time: 22:47:59
(UTC+01:00)

ISS - Pass Details

Date: 13 January 2018
Orbit: 402 x 407 km, 51.6° (Epoch: 23 January)

Event Time Altitude Azimuth Distance (km) Brightness Sun altitude
Exits shadow 07:06:24 22° 306° (NW) 943 -2.5 -12.8°
Maximum altitude 07:08:22 88° 32° (NNE) 411 -3.9 -12.5°
Drops below altitude 10° 07:11:39 10° 126° (SE) 1,461 0.3 -11.9°
Sets 07:13:44 0° 126° (SE) 2,319 1.6 -11.5°
